Location: Long Island Community Building
(39.9491°N, 99.5338°W)
Time: 05:12:56
(UTC+00:00)

H-2A R/B - Pass Details

Date: 06 December 2019
Orbit: 501 x 541 km, 97.3° (Epoch: 17 January)

Event Time Altitude Azimuth Distance (km) Brightness Sun altitude
Rises 23:41:11 0° 151° (SSE) 2,614 6.2 -5.7°
Reaches altitude 10° 23:43:21 10° 143° (SE) 1,726 5.2 -6.0°
Maximum altitude 23:46:50 40° 74° (ENE) 764 3.1 -6.7°
Drops below altitude 10° 23:50:19 10° 4° (N) 1,724 5.1 -7.3°
Sets 23:52:29 0° 357° (N) 2,610 6.1 -7.6°
